NOAA 16 DEB

Satellite information

Favourite Embed

Satellite Type and Status

DEBRISIN ORBIT

Key statistics

Satellite NOAA 16 DEB at a glance.

Uptime

9055

Days in orbit

Revolutions

≈ 14.2

Per day

Orbit

SSO

Sun Synchronous Orbit

Inclination

98.9

Latest

Satellite identification and parameters

Extended collection of information and parameters for NOAA 16 DEB.

Object identification

Identified? True

Debris? True

Object name: NOAA 16 DEB

International designator: 2000-055FU

Object number (NORAD): 41268

Object ID (CCSDS): 41268

Country: UNITED STATES OF AMERICA (US)

Current information (Y/N): Y

RCS size: SMALL

Orbital parameters

Period: 101.354 minutes

Inclination: 98.8657 deg

SMA: 7200.928 km

Apoapsis: 843.124 km

Periapsis: 802.462 km

RAAN: 274.6872 deg

Eccentricy: 0.0028234

Argument of periapsis: 175.7711 deg

Mean anomaly: 184.3709 deg

Mean motion: 14.20757727 rev/day

Mean motion (dot): 0.00003187 rev/day2

B* drag term: 0.0014914 1/REarth

Two-line elements (TLE)

Creation date: July 6, 2025, 4:10 a.m.

Reference frame: TEME

Reference center: EARTH

Epoch: July 5, 2025, 4:15 p.m. UTC

TLE line 0: 0 NOAA 16 DEB

TLE line 1: 1 41268U 00055FU 25186.67769649 .00003187 00000-0 14914-2 0 9997

TLE line 2: 2 41268 98.8657 274.6872 0028234 175.7711 184.3709 14.20757727490568

Live tracking on map

Real-time ground track for satellite NOAA 16 DEB.

In-orbit conjunctions

A list of the most updated potential collisions computed for object NOAA 16 DEB.

Target Orbit TCA Probability of collision Miss distance Type
SL-16 R/B LEO 2025-06-16 16:11:03 0.0002873054 125.0 (m) ROCKET BODY
CZ-6A R/B LEO 2025-06-04 22:02:31 0.0001237709 57.0 (m) ROCKET BODY

Associated space launch

The NOAA K, L and M POES satellites begin the fifth generation of improved environmental monitoring in support of NOAA missions. The instrument payload has significant improvements and additions/deletions. The instrument changes have effected the spacecraft subsystems and data formats.

NOAA 16 DEB was lifted into orbit during the mission ‘Titan II SLV | NOAA 16’, on board a Titan II SLV space rocket.

The launch took place on Sept. 21, 2000, 10:22 a.m. from Space Launch Complex 4W.

For more information about the launch, click the button.

Launch to space Titan II SLV | NOAA 16
Titan II SLV | NOAA 16

Agency: N/A

Status: Launch Successful

Launch date: Sept. 21, 2000, 10:22 a.m. UTC

Rocket: Titan II SLV

Launch pad: Space Launch Complex 4W

Location: Vandenberg SFB, CA, USA

...

Latest news about this satellite

There are no fresh news available about this satellite. Check back as we update our databases every day.


Newsletter sign-up

Weekly statistics, charts and insights to help you stay on top of the space industry.